NOAA 16 DEB, 41717

Orbit data source: Space-Track

NOAA 16 DEB, 41717 is space debris in SSO originally from a launch on Thu, 21 Sep 2000 UTC launched from the Air Force Western Test Range (AFWTR). Debris objects in space refer to the collection of defunct objects orbiting the Earth. Examples of debris include non-operational satellites, rocket bodies, and fragments generated from explosions, collisions, or faulty payload assembly.

Loading next visibility...
Identifier
41717, 2000-055PX
Orbit
SSO
Country
Flag of USUS
Related business
Manufacturer
Unknown
Mission
Spacecraft
Bus & Motor
Unknown
Mass
Unknown
Launch date (UTC)
2000-09-21 (26 years ago)
Launch vehicle
Unknown
Launch site
Air Force Western Test Range (AFWTR)
Object type
Payload
Rocket body
Debris
Shape & HBR
Unknown shape, 0.1 m
Radar Cross Section
Medium (>0.1 m² and <1 m²)

Expand to show TLE details & history
Last TLE update: 2 days ago

TLE from 2 days ago
0 NOAA 16 DEB
1 41717U 00055PX  26171.35610730  .00008064  00000-0  18577-2 0  9990
2 41717  98.8305 318.1871 0014998  89.5140 270.7775 14.55545012529960
Epoch: 2026-06-20T08:32Z
TLE epoch observation values (Epoch: 2026-06-20T08:32:47.670Z)
Latitude
0.00004°
Longitude
-78.58344°
Altitude
710.426 km
Speed
7.501 km/s
True Right ascension
21h 12m 44s
True Declination
0° 00' 00"
Sunlit
Object was in full shadow at epoch
Visualization orbit readout
Latitude
Unknown
Longitude
Unknown
Altitude
Unknown
Speed
Unknown
Apparent Right ascension
Unknown
Apparent Declination
Unknown
Sunlit
N/A
Visualization observer readout
Local Sidereal Time
21:39:01
Azimuth
Unknown
Elevation
Unknown
Doppler factor
Unknown
Orbital elements
Apogee altitude
715.335 km
Perigee altitude
694.09 km
Semi-major axis
7,082.85 km
Eccentricity
0.0015
Inclination
98.8305°
RAAN
318.1871°
Arg. of periapsis
89.514°
True anomaly
270.60565°
Mean anomaly
270.7775°
Eccentric anomaly
270.69157°
Mean motion
3.64109 °/min
Orbital period
98.87 mins
BSTAR
0.0018577
Loading maneuver chart data...
Computing Atmospheric mass density...
Loading historical data...
Loading historical data...
Loading historical data...
Loading historical data...
Loading historical data...
Loading historical data...
Loading historical data...

Documentation

Showing up to 5 results
|